Flag for Ireland

Past Weather in Longford, Ireland — Yesterday and Last 2 Weeks

Now
49 °F

Cool.


Feels Like: 49 °F
Forecast: 54 / 40 °F
Wind: 2 mph from Northwest

Location: Mullingar
Current Time: Sep 23, 2020 at 5:37:24 am
Latest Report: Sep 23, 2020 at 4:00 am
Visibility: 28 mi
Pressure29.61 "Hg
Humidity: 95%
Dew Point: 47 °F
Location of LongfordLocation

Past Weather in Longford — Graph

°F

Longford Temperature Yesterday

Maximum temperature yesterday: 61 °F (at 4:00 pm)
Minimum temperature yesterday: 50 °F (at 11:00 pm)
Average temperature yesterday: 55 °F

High & Low Weather Summary for the Past Weeks

 TemperatureHumidityPressure
High72 °F (Sep 15, 4:00 pm)99% (Sep 21, 1:00 am)30.39 "Hg (Sep 21, 1:00 am)
Low41 °F (Sep 21, 12:00 am)60% (Sep 13, 2:00 pm)29.54 "Hg (Sep 22, 6:00 pm)
Average57 °F85%30.10 "Hg
* Reported Sep 8 4:00 am — Sep 23 4:00 am, Longford. Weather by CustomWeather, © 2020

Note: Actual official high and low records may vary slightly from our data, if they occured in-between our weather recording intervals... More about our weather records

Longford Weather History for the Previous 24 Hours

Scroll right to see more
 ConditionsComfort  
Time TempWeatherWind HumidityBarometerVisibility
4:00 am
Wed, Sep 23
49 °FCool.2 mph95%29.61 "Hg28 mi
3:00 am48 °FCool.2 mph97%29.61 "Hg7 mi
2:00 am47 °FCool.2 mph97%29.60 "Hg12 mi
1:00 am47 °FCool.2 mph96%29.60 "Hg19 mi
12:00 am48 °FCool.1 mph95%29.59 "Hg22 mi
11:00 pm
Tue, Sep 22
50 °FCool.2 mph94%29.60 "Hg31 mi
10:00 pm51 °FCool.3 mph91%29.59 "Hg31 mi
9:00 pm53 °FCool.2 mph94%29.57 "Hg31 mi
8:00 pm53 °FCool.3 mph92%29.56 "Hg14 mi
7:00 pm56 °FLots of rain. Cloudy.2 mph96%29.54 "Hg6 mi
6:00 pm57 °FCool.6 mph94%29.54 "Hg4 mi
5:00 pm58 °FCool.6 mph89%29.55 "Hg3 mi
4:00 pm61 °FCool.6 mph75%29.57 "Hg22 mi
3:00 pm60 °FCool.6 mph74%29.59 "Hg31 mi
2:00 pm60 °FCool.7 mph73%29.61 "Hg28 mi
1:00 pm59 °FCool.6 mph73%29.63 "Hg25 mi
12:00 pm59 °FCool.7 mph75%29.65 "Hg22 mi
11:00 am57 °FCool.6 mph80%29.68 "Hg22 mi
10:00 am56 °FCool.5 mph80%29.70 "Hg19 mi
9:00 am54 °FCool.5 mph85%29.72 "Hg25 mi
8:00 am53 °FCool.5 mph87%29.74 "Hg25 mi
7:00 am53 °FCool.3 mph90%29.75 "Hg14 mi
6:00 am53 °FCool.5 mph91%29.78 "Hg10 mi
5:00 am53 °FCool.3 mph94%29.80 "Hg6 mi
Weather by CustomWeather, © 2020

See weather overview